Regional Weather Roundup
Issued by NWS

Home | Current Version | Previous Version | Graphics & Text | Print | Product List | Glossary Off
Versions: 1 2 3 4 5 6 7 8 9 10 11 12 13 14 15 16 17 18 19 20 21 22 23 24 25 26 27 28 29 30 31 32 33 34 35 36 37 38 39 40 41 42 43 44 45 46 47 48 49 50

000
ASUS43 KMKX 290624
RWRWI

WISCONSIN REGIONAL WEATHER ROUNDUP
NATIONAL WEATHER SERVICE MILWAUKEE/SULLIVAN WI
100 AM CDT TUE JUL 29 2014

NOTE: "FAIR" INDICATES FEW OR NO CLOUDS BELOW 12,000 FEET WITH NO
SIGNIFICANT WEATHER AND/OR OBSTRUCTIONS TO VISIBILITY.

WIZ001-002-006>008-014>016-023>028-290700-
NORTHWEST WISCONSIN

CITY           SKY/WX    TMP DP  RH WIND       PRES   REMARKS
SUPERIOR ARPT  PTCLDY    59  56  89 NW3       30.09S
6HR MIN TEMP:  59; 6HR MAX TEMP:  73;

ASHLAND        CLOUDY    59  55  87 CALM      30.08F
6HR MIN TEMP:  57; 6HR MAX TEMP:  71; 6HR PCP:  0.22;

HAYWARD        PTCLDY    57  53  86 N3        30.11R
6HR MIN TEMP:  55; 6HR MAX TEMP:  72;

SIREN          CLEAR     56  53  90 NW3       30.12S
6HR MIN TEMP:  56; 6HR MAX TEMP:  73;

RICE LAKE      NOT AVBL
LADYSMITH      CLEAR     57  54  89 CALM      30.11F
6HR MIN TEMP:  58; 6HR MAX TEMP:  71;

EAU CLAIRE     PTCLDY    60  54  80 W5        30.09S
6HR MIN TEMP:  59; 6HR MAX TEMP:  73;

MENOMONIE      CLEAR     60  55  84 W6        30.11S
6HR MIN TEMP:  60; 6HR MAX TEMP:  73;

NEW RICHMOND   CLEAR     58  55  92 NW5       30.13S
6HR MIN TEMP:  57; 6HR MAX TEMP:  72;

OSCEOLA        CLEAR     56  55  97 CALM      30.16S
6HR MIN TEMP:  56; 6HR MAX TEMP:  73;

$$

WIZ003>005-009-010-017-018-290700-
NORTH CENTRAL WISCONSIN

CITY           SKY/WX    TMP DP  RH WIND       PRES   REMARKS
WOODRUFF       PTCLDY    57  54  89 NW8       30.08R
6HR MIN TEMP:  57; 6HR MAX TEMP:  69; 6HR PCP:  0.04;

RHINELANDER    MOCLDY    56  54  93 W7        30.07R
6HR MIN TEMP:  56; 6HR MAX TEMP:  66; 6HR PCP:  0.02;

EAGLE RIVER    PTCLDY    55  55 100 NW5       30.06R
6HR MIN TEMP:  53; 6HR MAX TEMP:  65; 6HR PCP:  0.02;

LAND O LAKES   PTCLDY    56  54  90 NW5       30.06F
6HR MIN TEMP:  56; 6HR MAX TEMP:  66; 6HR PCP:  0.01;

PHILLIPS       CLOUDY    56  55  95 CALM      30.09S
6HR MIN TEMP:  55; 6HR MAX TEMP:  66; 6HR PCP:  0.10;

TOMAHAWK       MOCLDY    53  51  94 CALM      30.08R
6HR MIN TEMP:  53; 6HR MAX TEMP:  65; 6HR PCP:  0.05;

MEDFORD        MOCLDY    56  54  94 W3        30.09F
6HR MIN TEMP:  56; 6HR MAX TEMP:  67; 6HR PCP:  0.03;

MERRILL        MOCLDY    57  55  94 W3        30.07S
6HR MIN TEMP:  57; 6HR MAX TEMP:  67; 6HR PCP:  0.01;

$$

WIZ029-030-035-036-043>047-290700-
CENTRAL WISCONSIN

CITY           SKY/WX    TMP DP  RH WIND       PRES   REMARKS
WAUSAU         CLOUDY    60  55  83 NW8       30.06R
6HR MIN TEMP:  60; 6HR MAX TEMP:  69; 6HR PCP: TRACE;

MOSINEE        PTCLDY    57  55  94 NW8       30.07F
MARSHFIELD     CLOUDY    62  54  74 N14       30.08S
6HR MIN TEMP:  58; 6HR MAX TEMP:  70;

STEVENS POINT  PTCLDY    61  54  77 NW7       30.06F
6HR MIN TEMP:  61; 6HR MAX TEMP:  68;

WAUPACA        PTCLDY    66  55  67 NW9       30.04S
6HR MIN TEMP:  66; 6HR MAX TEMP:  72;

WAUTOMA        CLOUDY    64  55  72 W6        30.06S
6HR MIN TEMP:  62; 6HR MAX TEMP:  72;

WISC RAPIDS    MOCLDY    60  55  83 NW3       30.08S
6HR MIN TEMP:  59; 6HR MAX TEMP:  71; 6HR PCP: TRACE;

CAMP DOUGLAS   CLEAR     53  53 100 W7        30.09S
6HR MIN TEMP:  53; 6HR MAX TEMP:  69;

$$

WIZ011>013-019>022-031-037>040-048>050-290700-
NORTHEAST WISCONSIN

CITY           SKY/WX    TMP DP  RH WIND       PRES   REMARKS
ANTIGO         PTCLDY    56  54  94 NW8       30.05F
6HR MIN TEMP:  55; 6HR MAX TEMP:  65; 6HR PCP:  0.01;

STURGEON BAY   MOCLDY    63  55  77 NW8       30.00S
6HR MIN TEMP:  57; 6HR MAX TEMP:  64;

GREEN BAY      CLOUDY    62  56  80 W5        30.01F
6HR MIN TEMP:  61; 6HR MAX TEMP:  69;

MANITOWOC      CLOUDY    60  54  80 W3        30.01F
6HR MIN TEMP:  54; 6HR MAX TEMP:  61;

APPLETON       CLOUDY    61  54  77 W8        30.03F
CLINTONVILLE   CLEAR     61  54  77 NW7       30.03S
OSHKOSH        CLOUDY    63  55  75 W6        30.03F
6HR MIN TEMP:  62; 6HR MAX TEMP:  71;

$$

WIZ032>034-041-042-053>061-290700-
SOUTHWEST WISCONSIN

CITY           SKY/WX    TMP DP  RH WIND       PRES   REMARKS
LA CROSSE      CLEAR     60  56  86 S3        30.10S
6HR MIN TEMP:  58; 6HR MAX TEMP:  74;

SPARTA         MOCLDY    51  50  95 CALM      30.11S
6HR MIN TEMP:  51; 6HR MAX TEMP:  71;

VIROQUA        FAIR      56  54  92 W3        30.12S
6HR MIN TEMP:  56; 6HR MAX TEMP:  68;

BOSCOBEL       CLEAR     55  53  93 SW3       30.11S
6HR MIN TEMP:  54; 6HR MAX TEMP:  73;

PRAIRIE DU CHI CLEAR     55  52  89 CALM      30.12R
6HR MIN TEMP:  55; 6HR MAX TEMP:  72;

PLATTEVILLE    FAIR      56  52  86 CALM      30.12S
6HR MIN TEMP:  55; 6HR MAX TEMP:  69;

$$

WIZ056-057-062-063-064-067-068-290700-
SOUTH CENTRAL WISCONSIN

CITY           SKY/WX    TMP DP  RH WIND       PRES   REMARKS
BARABOO/DELLS  CLOUDY    62  51  67 W5        30.08S
6HR MIN TEMP:  61; 6HR MAX TEMP:  70;

LONE ROCK      CLEAR     61  54  77 W6        30.10S
6HR MIN TEMP:  60; 6HR MAX TEMP:  74;

WATERTOWN      CLEAR     59  54  83 W3        30.05F
6HR MIN TEMP:  59; 6HR MAX TEMP:  70;

MADISON        CLEAR     62  52  69 NW3       30.07S
6HR MIN TEMP:  62; 6HR MAX TEMP:  72;

MIDDLETON      FAIR      60  52  76 W6        30.08S
6HR MIN TEMP:  60; 6HR MAX TEMP:  71;

MONROE         CLOUDY    61  52  72 NW9       30.09S
JANESVILLE     MOCLDY    61  50  67 NW7       30.07S
$$

WIZ051-052-058>065-066-070>072-290700-
SOUTHEAST WISCONSIN

CITY           SKY/WX    TMP DP  RH WIND       PRES   REMARKS
MILWAUKEE      MOCLDY    59  50  72 SW3       30.05S
6HR MIN TEMP:  58; 6HR MAX TEMP:  62;

WAUKESHA       CLEAR     59  52  77 CALM      30.06S
MILWAUKEE/TIMM PTCLDY    57  50  77 CALM      30.05S
RACINE         CLEAR     58  52  80 S3        30.06F
6HR MIN TEMP:  57; 6HR MAX TEMP:  62;

BURLINGTON     CLEAR     56  52  88 W6        30.05S
6HR MIN TEMP:  56; 6HR MAX TEMP:  66;

KENOSHA        MOCLDY    56  52  86 SW3       30.05F
6HR MIN TEMP:  56; 6HR MAX TEMP:  63;

FOND DU LAC    MOCLDY    63  54  72 W7        30.04S
6HR MIN TEMP:  62; 6HR MAX TEMP:  71;

SHEBOYGAN      CLOUDY    56  54  93 SW3       30.02F
6HR MIN TEMP:  54; 6HR MAX TEMP:  62;

WEST BEND      PTCLDY    55  52  88 CALM      30.04S
JUNEAU         CLEAR     58  53  82 W3        30.07S
6HR MIN TEMP:  58; 6HR MAX TEMP:  69;

$$

LSZ147-162-290700-
LAKE SUPERIOR

STATION/POSITION TIME  TEMP    WIND        PRES    WAVE
                       AIR SEA DIR/SP/G            HT/PER
                 (UTC) (F)     (DEG/KT/KT) (MB)    (FT/S)
W MID LAKE BUOY  0550   49 43  270/  6/  8 1017.0F   1/ 3
PORT WING        0500   61      80/  4/  6 1019.0F
SAXON HARBOR     0500           50/  8/ 12 1019.0R
$$

LMZ867-665-643>646-290700-
LAKE MICHIGAN

STATION/POSITION TIME  TEMP    WIND        PRES    WAVE
                       AIR SEA DIR/SP/G            HT/PER
                 (UTC) (F)     (DEG/KT/KT) (MB)    (FT/S)
N MID LAKE BUOY  0550   58 54  260/  8/ 10 1014.1F   1
NORTHPORT PIER   0400   64     260/  3/  6 1015.6F
SISTER BAY       0510   65     330/ 12/ 14   N/A
ALGOMA LAKESHORE 0506             CALM       N/A
KEWAUNEE LAKESHO 0600   59     300/  5/  7 1016.3F
SHEBOYGAN LAKESH 0600   60     200/  5/  5 1016.8F
PORT WASHINGTON  0500   59     250/  5/  5 1017.9S
ATWATER BUOY     0600   61     190/  6     1018.2R
MILWAUKEE LAKESH 0600   61     220/  5/  5   N/A
S MID LAKE BUOY  0550   60 60  250/  6/  8 1017.2F   2/ 6
KENOSHA   LAKESH 0600   60     210/  5/  7 1017.3F
$$

TC  - TEMPERATURE IN CELSIUS
VSB - VISIBILITY IN STATUTE MILES
WCI - WIND CHILL INDEX
HX  - HEAT INDEX




USA.gov is the U.S. government's official web portal to all federal, state and local government web resources and services.